Aérodrome :
LOGIN :

S'inscrire | Disclaimer

   EN    FR    IT 

 










Légende :    VFR   VFR Marginal   IFR   IFR Intensif   IFR Très Intensif
Visi : 
Plafond : 
>= 8 km
>= 3000ft
5 à 8 km
1000 à 3000 ft
1500m à 5 km
500 à 1000 ft
800 à 1500m
200 à 500 ft
< 800m
< 200 ft
Symboles :   Orages  Brouillard  Fortes neiges  Fortes précipitations  Vent > 20 kt
SIGMETs :   Divers  Orages  Givrage  Turbulence  Onde Orograph.  Cendres Volcan.






- Altitude de l'aérodrome : 183 ft
- Code IATA : HAJ


EDDV - Hanover/Langenhagen Int.

DERNIER METAR :
  • 230150Z 26008KT CAVOK 05/03 Q1021

METARs EXPIRÉS :
  • 230120Z 26008KT 230V290 CAVOK 05/03 Q1021
  • 230050Z 26009KT CAVOK 05/03 Q1021
  • 230020Z 26008KT CAVOK 05/03 Q1020
  • 222350Z 26008KT CAVOK 06/03 Q1020
  • 222320Z 26009KT CAVOK 06/03 Q1020

TAF TAF EDDV
Valide du 23 à 00h jusqu'au 24 à 00h UTC


222300Z 2300/2324 26009KT 9999 SCT030
BECMG 2316/2318 19003KT



MET'MAP, la Météo Aéronautique d'un coup d'oeil ! - Copyright ORBIFLY Décembre 2007 - Disclaimer

ORBIFLY MET'MAP TEAM :

Programmation & Développement : Alexandra Zaïnal
Sur une idée originale de : Baudouin d'Aumeries
Assistance à la programmation : Marc-Olivier Méhu
Soutien technique & logistique : Manuel Goepfert

Contact : metmap@orbifly.com




SOURCES & CREDITS :

   NOAA